Weather History for KPTS - May, 2013

Change the Weather History Date:

Friday, May 24, 2013

  Actual Average (KJLN) Record (KJLN)
Temperature  
Mean Temperature 66 °F 69 °F  
Max Temperature 76 °F 80 °F 90 °F (1996)
Min Temperature 55 °F 58 °F 45 °F (2001)
Degree Days  
Heating Degree Days 0 1  
Month to date heating degree days 59  
Since 1 July heating degree days 4062  
Cooling Degree Days 0 5  
Month to date cooling degree days 84  
Year to date cooling degree days 138  
Growing Degree Days 16 (Base 50)    
Moisture  
Dew Point 55 °F    
Average Humidity 70    
Maximum Humidity 100    
Minimum Humidity 52    
Precipitation  
Precipitation 0.00 in 0.16 in 2.48 in (2015)
Month to date precipitation 4.46  
Year to date precipitation 16.70  
Sea Level Pressure  
Sea Level Pressure 30.22 in    
Wind  
Wind Speed 9 mph (ESE)    
Max Wind Speed 17 mph    
Max Gust Speed 24 mph    
Visibility 10 miles    
Events      
T = Trace of Precipitation, MM = Missing Value Source: NWS Daily Summary

Daily Weather History Graph

Daily Weather History Graph

Search for Another Location

Airport or City:

Trip Planner

Search our weather history database for the weather conditions in past years. The results will help you decide how hot, cold, wet, or windy it might be!

Date:

Astronomy

May. 24, 2013 Rise Set
Actual Time 6:03 AM CDT 8:28 PM CDT
Civil Twilight 5:33 AM CDT 8:58 PM CDT
Nautical Twilight 4:56 AM CDT 9:35 PM CDT
Astronomical Twilight 4:15 AM CDT 10:16 PM CDT
Moon 8:12 PM CDT (5/24) 5:35 AM CDT (5/24)
Length of Visible Light 15h 25m
Length of Day
14h 25m
Full, 100% of the Moon is Illuminated
May 24
Full
May 24
Full
May 31
Last Quarter
Jun 8
New
Jun 16
First Quarter

Hourly Weather History & Observations

Time (CDT) Temp. Dew Point Humidity Pressure Visibility Wind Dir Wind Speed Gust Speed Precip Events Conditions
12:15 AM 60.3 °F 57.7 °F 91% 30.19 in 10.0 mi East 5.8 mph - N/A   Clear
12:35 AM 58.5 °F 57.9 °F 98% 30.20 in 10.0 mi East 4.6 mph - N/A   Clear
12:55 AM 58.3 °F 58.5 °F 100% 30.21 in 10.0 mi ENE 8.1 mph - N/A   Clear
1:15 AM 58.3 °F 58.5 °F 100% 30.22 in 10.0 mi East 4.6 mph - N/A   Clear
1:35 AM 58.3 °F 58.5 °F 100% 30.22 in 10.0 mi East 6.9 mph - N/A   Clear
1:55 AM 58.3 °F 58.5 °F 100% 30.21 in 10.0 mi East 6.9 mph - N/A   Clear
2:15 AM 58.3 °F 58.5 °F 100% 30.22 in 10.0 mi ESE 5.8 mph - N/A   Clear
2:35 AM 58.3 °F 58.5 °F 100% 30.22 in 10.0 mi East 4.6 mph - N/A   Clear
2:55 AM - - N/A% 30.22 in 10.0 mi ENE 9.2 mph - N/A   Clear
3:15 AM 58.3 °F 58.5 °F 100% 30.22 in 10.0 mi East 9.2 mph - N/A   Clear
3:35 AM 58.3 °F 58.5 °F 100% 30.23 in 10.0 mi East 6.9 mph - N/A   Clear
3:55 AM 58.1 °F 58.3 °F 100% 30.23 in 10.0 mi East 8.1 mph - N/A   Clear
4:15 AM 58.3 °F 58.5 °F 100% 30.23 in 10.0 mi East 9.2 mph - N/A   Clear
4:35 AM 57.6 °F 57.6 °F 100% 30.24 in 10.0 mi East 6.9 mph - N/A   Clear
4:55 AM 57.0 °F 57.0 °F 100% 30.25 in 10.0 mi East 5.8 mph - N/A   Clear
5:15 AM 56.3 °F 56.3 °F 100% 30.25 in 10.0 mi East 8.1 mph - N/A   Clear
5:35 AM 55.8 °F 55.9 °F 100% 30.25 in 10.0 mi East 8.1 mph - N/A   Clear
5:55 AM 55.8 °F 55.9 °F 100% 30.25 in 10.0 mi East 9.2 mph - N/A   Clear
6:15 AM 55.8 °F 55.9 °F 100% 30.26 in 10.0 mi ESE 9.2 mph - N/A   Clear
6:35 AM 56.7 °F 56.8 °F 100% 30.27 in 10.0 mi ESE 8.1 mph - N/A   Clear
6:55 AM 57.6 °F 57.7 °F 100% 30.27 in 10.0 mi ESE 8.1 mph - N/A   Clear
7:15 AM 58.3 °F 58.5 °F 100% 30.27 in 10.0 mi ESE 11.5 mph 17.3 mph N/A   Clear
7:35 AM 58.3 °F 57.4 °F 97% 30.27 in 10.0 mi ESE 10.4 mph 20.7 mph N/A   Clear
7:55 AM 58.3 °F 55.2 °F 90% 30.27 in 10.0 mi ESE 16.1 mph - N/A   Clear
8:15 AM 59.2 °F 53.1 °F 80% 30.27 in 10.0 mi ESE 13.8 mph 20.7 mph N/A   Clear
8:35 AM 60.8 °F 50.2 °F 68% 30.28 in 10.0 mi ESE 16.1 mph 20.7 mph N/A   Clear
8:55 AM 60.8 °F 48.4 °F 64% 30.28 in 10.0 mi ESE 16.1 mph 24.2 mph N/A   Clear
9:15 AM 61.9 °F 48.0 °F 60% 30.29 in 10.0 mi ESE 15.0 mph 23.0 mph N/A   Clear
9:35 AM 62.4 °F 47.7 °F 58% 30.29 in 10.0 mi ESE 17.3 mph 21.9 mph N/A   Clear
9:55 AM 63.5 °F 48.6 °F 58% 30.29 in 10.0 mi SE 15.0 mph 20.7 mph N/A   Clear
10:15 AM 64.0 °F 49.1 °F 58% 30.29 in 10.0 mi ESE 15.0 mph 20.7 mph N/A   Clear
10:35 AM 65.7 °F 50.5 °F 58% 30.29 in 10.0 mi SE 11.5 mph 19.6 mph N/A   Clear
10:55 AM 65.8 °F 50.2 °F 57% 30.28 in 10.0 mi ESE 13.8 mph 19.6 mph N/A   Clear
11:15 AM 66.7 °F 50.7 °F 56% 30.27 in 10.0 mi ESE 13.8 mph 20.7 mph N/A   Clear
11:35 AM 68.4 °F 52.2 °F 56% 30.27 in 10.0 mi ESE 13.8 mph 19.6 mph N/A   Clear
11:55 AM 69.8 °F 53.8 °F 57% 30.27 in 10.0 mi ESE 15.0 mph 23.0 mph N/A   Clear
12:15 PM 70.9 °F 54.3 °F 56% 30.27 in 10.0 mi ESE 10.4 mph - N/A   Clear
12:35 PM 70.9 °F 53.6 °F 54% 30.26 in 10.0 mi ESE 15.0 mph 19.6 mph N/A   Clear
1:15 PM 70.9 °F 52.9 °F 53% 30.25 in 10.0 mi ESE 10.4 mph 18.4 mph N/A   Clear
1:35 PM 70.9 °F 53.6 °F 54% 30.25 in 10.0 mi SE 10.4 mph 17.3 mph N/A   Clear
1:55 PM 71.6 °F 54.7 °F 55% 30.24 in 10.0 mi ESE 11.5 mph - N/A   Clear
2:15 PM 73.4 °F 55.9 °F 54% 30.24 in 10.0 mi ESE 10.4 mph - N/A   Clear
2:35 PM 73.8 °F 55.8 °F 53% 30.24 in 10.0 mi SSE 9.2 mph - N/A   Clear
2:55 PM 74.7 °F 56.8 °F 54% 30.24 in 10.0 mi ESE 8.1 mph - N/A   Clear
3:15 PM 76.1 °F 57.7 °F 53% 30.22 in 10.0 mi ESE 9.2 mph - N/A   Clear
3:35 PM 76.1 °F 58.1 °F 54% 30.22 in 10.0 mi SE 9.2 mph - N/A   Clear
3:55 PM 76.1 °F 57.7 °F 53% 30.22 in 10.0 mi ESE 10.4 mph - N/A   Clear
4:15 PM 76.1 °F 57.7 °F 53% 30.21 in 10.0 mi East 10.4 mph - N/A   Clear
4:35 PM 76.1 °F 57.2 °F 52% 30.20 in 10.0 mi ESE 9.2 mph - N/A   Clear
4:55 PM 76.1 °F 58.1 °F 54% 30.19 in 10.0 mi SE 10.4 mph - N/A   Clear
5:15 PM 76.1 °F 57.6 °F 53% 30.18 in 10.0 mi ESE 8.1 mph - N/A   Clear
5:35 PM 76.1 °F 57.6 °F 53% 30.17 in 10.0 mi ESE 6.9 mph - N/A   Clear
5:55 PM 76.1 °F 57.6 °F 53% 30.17 in 10.0 mi SE 8.1 mph - N/A   Clear
6:15 PM 76.1 °F 57.6 °F 53% 30.16 in 10.0 mi ESE 10.4 mph 16.1 mph N/A   Clear
6:35 PM 76.1 °F 57.7 °F 53% 30.16 in 10.0 mi ESE 8.1 mph - N/A   Clear
6:55 PM 76.1 °F 57.6 °F 53% 30.15 in 10.0 mi SSE 10.4 mph - N/A   Clear
7:15 PM 76.1 °F 57.7 °F 53% 30.16 in 10.0 mi SE 9.2 mph - N/A   Clear
7:35 PM 75.4 °F 57.0 °F 53% 30.15 in 10.0 mi SE 8.1 mph - N/A   Clear
7:55 PM 73.4 °F 55.8 °F 54% 30.15 in 10.0 mi ESE 9.2 mph - N/A   Clear
8:15 PM 72.0 °F 54.9 °F 55% 30.15 in 10.0 mi SE 6.9 mph - N/A   Clear
8:35 PM 70.9 °F 54.5 °F 56% 30.15 in 10.0 mi SE 8.1 mph - N/A   Clear
8:55 PM 70.9 °F 54.7 °F 56% 30.15 in 10.0 mi SE 6.9 mph - N/A   Clear
9:15 PM 70.9 °F 54.1 °F 55% 30.16 in 10.0 mi SE 8.1 mph - N/A   Clear
9:35 PM 70.7 °F 54.0 °F 55% 30.16 in 10.0 mi SE 5.8 mph - N/A   Clear
9:55 PM 69.8 °F 53.4 °F 56% 30.17 in 10.0 mi SE 8.1 mph - N/A   Clear
10:15 PM 68.4 °F 52.5 °F 57% 30.18 in 10.0 mi SSE 9.2 mph - N/A   Clear
10:35 PM 68.4 °F 52.9 °F 58% 30.18 in 10.0 mi SE 8.1 mph - N/A   Clear
10:55 PM 68.0 °F 52.9 °F 58% 30.18 in 10.0 mi SSE 10.4 mph - N/A   Clear
11:15 PM 66.0 °F 52.2 °F 61% 30.17 in 10.0 mi SSE 9.2 mph - N/A   Clear
11:35 PM 65.8 °F 52.3 °F 62% 30.17 in 10.0 mi SSE 9.2 mph - N/A   Clear
11:55 PM 65.8 °F 52.3 °F 62% 30.17 in 10.0 mi SSE 10.4 mph - N/A   Clear